Weather in Uval'noye

Russia / Primorsky Krai     45°02′56″N   133°28′24″E
temp.,
°C
wind,
m/s
gust,
m/s
humid.,
%
clouds,
%
prec.,
mm/h
press.,
hPa
HPBL,
m
25 january, tue
tue2501:00−23se2210070 0.0 102711
04:00−24se2210060 0.0 102714
07:00−24ese229925 0.0 102615
10:00−19ese229467 0.0 102561
13:00−11e118044 0.0 1024250
16:00−9n12815 0.0 1022293
19:00−18n119924 0.0 10239
22:00−21ese1110080 0.0 10239
26 january, wed
wed2601:00−22ese1110092 0.0 10239
04:00−22se11100100 0.0 10239
07:00−22se11100100 0.0 10249
10:00−17s019897 0.0 102448
13:00−12wnw228868 0.0 1023273
16:00−11nw228792 0.0 1023324
19:00−14wnw119882 0.1 102412
22:00−15sw119898 0.2 102510
27 january, thu
thu2701:00−15ssw1198100 0.3 102614
04:00−15sw2397100 0.6 102661
07:00−14wsw2497100 0.6 1026162
10:00−14w3494100 1.0 1027264
13:00−12w3389100 0.2 1027450
16:00−12w3487100 0.3 1026578
19:00−15ssw1198100 0.1 102611
22:00−16sw2298100 0.3 102536
28 january, fri
fri2801:00−17sw2399100 0.2 102550
04:00−17sw2398100 0.4 102469
07:00−18sw239996 0.2 102348
10:00−15wsw2595100 0.4 1023203
13:00−12w488585 0.1 1021648
16:00−12w4785100 0.1 1019720
19:00−14sw2497100 0.2 101992
22:00−14wnw3995100 0.6 1018480
29 january, sat
sat2901:00−14wnw5995100 0.8 1018604
04:00−15wnw4894100 1.3 1018484
07:00−17w2796100 0.2 1018251
10:00−16w3793100 0.4 1018433
13:00−14wnw6984100 0.3 10171150
16:00−14wnw5977100 0.4 10171457
19:00−19wnw378970 0.0 1018110
22:00−24sw229927 0.0 101913